TITAN 3C TRANSTAGE DEB, 19592

Orbit data source: Space-Track

TITAN 3C TRANSTAGE DEB, 19592 is space debris in HEO originally from a launch on Tue, 21 Dec 1965 UTC launched from the Air Force Eastern Test Range (AFETR). Debris objects in space refer to the collection of defunct objects orbiting the Earth. Examples of debris include non-operational satellites, rocket bodies, and fragments generated from explosions, collisions, or faulty payload assembly.

Loading next visibility...
TITAN 3C TRANSTAGE DEB details
Identifier
19592, 1965-108AA
Orbit
HEO
Last TLE update21 hours ago
Origin
Flag of USUSAF SSD (US)
ManufacturerUnknown
MissionSpacecraft
Bus & MotorUnknown
MassUnknown
Launch date (UTC)
1965-12-21 (59 years ago)
Launch vehicleUnknown
Launch site
Air Force Eastern Test Range (AFETR)
Object type
Payload
Rocket body
Debris
Shape & HBRUnknown
Radar Cross SectionMedium (>0.1 m² and <1 m²)

Expand to show TLE details & history

TLE from 21 hours ago
0 TITAN 3C TRANSTAGE DEB
1 19592U 65108AA  24356.31505804  .00001676  00000-0  86639-2 0  9996
2 19592  26.8320  78.9506 6732840 208.1816  33.6005  2.83772960329904
Epoch: 2024-12-21T07:33Z
Definitive object data (Epoch: 2024-12-21T07:33:41.014Z)
Latitude-15.59445°
Longitude-158.17643°
Altitude9,822.273 km
Speed5.504 km/s
True Right ascension03h 02m 26s
True Declination-15° 33' 19"
Sunlit
Object was in daylight at TLE epoch
Visualization TLE readout
Latitude16.89427°
Longitude-88.41282°
Altitude27,558.907 km
Speed2.14 km/s
Apparent Right ascension08h 12m 36s
Apparent Declination10° 54' 07"
Sunlit
Object is in daylight
Visualization observer readout
Local Sidereal Time03:57:40
Azimuth98.64° ESE
Elevation27.044°
Doppler factor1
Orbital elements
Apogee altitude28,891.291 km
Perigee altitude508.373 km
Semi-major axis21,077.969 km
Eccentricity0.673284
Inclination26.832°
RAAN78.9506°
Arg. of periapsis208.1816°
True anomaly115.30366°
Mean anomaly33.6005°
Eccentric anomaly69.80537°
Mean motion0.70925 °/min
BSTAR0.0086639
Orbital period507.58 mins
Loading maneuver chart data...

TITAN 3C TRANSTAGE DEB Visibility forecast

Observer location: undefined°, undefined

Span
Click to sort rows by Start time (UTC) header in descending order
Start Az.
Max El. time (UTC)
Max El. Az.
Max El.
End time (UTC)
End Az.
140 mins2024-12-22 04:53:10.359Z98.662° ESE2024-12-22 05:49:10.359Z95.388° ESE26.261°2024-12-22 07:13:10.359Z79.442° E
368 mins2024-12-22 10:15:10.359Z250.42° W2024-12-22 16:12:10.359Z234.228° WSW29.04°2024-12-22 16:23:10.359Z175.348° S
163 mins2024-12-23 02:10:10.359Z134.467° SE2024-12-23 04:53:10.359Z117.675° SE30.24°2024-12-23 04:53:10.359Z117.675° SE
|